SAS1496 ENZV-ESSA

Flight info

Callsign SAS1496
Flight time 1h 0m
Altitude 35000
Route UPLEV DCT ELTOK
Aircraft MD83/M-SDFGIRWY/S

Departure

Time 2026-05-09 15:53
Airport Stavanger Airport, Sola (ENZV)

Arrival

Time 2026-05-09 16:54
Airport Stockholm-Arlanda Airport (ESSA)
Time Latitude Longitude Altitude Speed Heading
2026-05-09 15:23 58.88153 5.63082 26 ft 0 kts 315°
2026-05-09 15:39 58.88138 5.63110 28 ft 4 kts 315°
2026-05-09 15:40 58.88119 5.63147 27 ft 4 kts 315°
2026-05-09 15:40 58.88101 5.63181 28 ft 4 kts 305°
2026-05-09 15:40 58.88095 5.63215 28 ft 4 kts 251°
2026-05-09 15:40 58.88109 5.63249 29 ft 4 kts 219°
2026-05-09 15:41 58.88122 5.63270 30 ft 1 kts 221°
2026-05-09 15:41 58.88124 5.63273 30 ft 0 kts 221°
2026-05-09 15:46 58.88123 5.63270 30 ft 2 kts 222°
2026-05-09 15:47 58.88101 5.63233 29 ft 6 kts 222°
2026-05-09 15:47 58.88062 5.63211 29 ft 6 kts 165°
2026-05-09 15:47 58.88027 5.63257 29 ft 6 kts 133°
2026-05-09 15:47 58.88001 5.63317 31 ft 7 kts 130°
2026-05-09 15:48 58.87913 5.63343 32 ft 16 kts 200°
2026-05-09 15:48 58.87833 5.63296 32 ft 10 kts 185°
2026-05-09 15:48 58.87748 5.63294 32 ft 23 kts 179°
2026-05-09 15:48 58.87588 5.63297 32 ft 17 kts 178°
2026-05-09 15:49 58.87470 5.63302 32 ft 18 kts 179°
2026-05-09 15:49 58.87347 5.63307 32 ft 18 kts 179°
2026-05-09 15:49 58.87222 5.63305 32 ft 18 kts 177°
2026-05-09 15:49 58.87097 5.63314 33 ft 18 kts 179°
2026-05-09 15:50 58.86999 5.63336 33 ft 5 kts 148°
2026-05-09 15:50 58.86983 5.63385 32 ft 5 kts 121°
2026-05-09 15:50 58.86965 5.63443 33 ft 5 kts 121°
2026-05-09 15:50 58.86956 5.63495 34 ft 3 kts 95°
2026-05-09 15:51 58.86955 5.63532 34 ft 2 kts 94°
2026-05-09 15:51 58.86954 5.63547 35 ft 0 kts 94°
2026-05-09 15:51 58.86953 5.63570 35 ft 5 kts 94°
2026-05-09 15:51 58.86953 5.63679 37 ft 12 kts 89°
2026-05-09 15:52 58.87002 5.63807 37 ft 4 kts 350°
2026-05-09 15:52 58.87009 5.63805 36 ft 0 kts 353°
2026-05-09 15:52 58.87081 5.63799 36 ft 39 kts 359°
2026-05-09 15:53 58.87633 5.63785 34 ft 116 kts 359°
2026-05-09 15:53 58.88648 5.63760 94 ft 169 kts
2026-05-09 15:53 58.89800 5.63761 1130 ft 156 kts 359°
2026-05-09 15:53 58.90829 5.63804 2057 ft 160 kts
2026-05-09 15:54 58.91985 5.63817 2748 ft 169 kts 359°
2026-05-09 15:54 58.93227 5.63737 3296 ft 195 kts 356°
2026-05-09 15:54 58.94675 5.63596 3845 ft 216 kts 357°
2026-05-09 15:54 58.96249 5.63463 4549 ft 242 kts 354°
2026-05-09 15:55 58.98001 5.63310 5255 ft 257 kts 356°
2026-05-09 15:55 58.99854 5.63236 5888 ft 275 kts 357°
2026-05-09 15:55 59.01797 5.63219 6697 ft 283 kts 357°
2026-05-09 15:55 59.03781 5.63330 7543 ft 289 kts
2026-05-09 15:56 59.05660 5.64767 8424 ft 297 kts 36°
2026-05-09 15:56 59.07025 5.67774 9292 ft 301 kts 64°
2026-05-09 15:56 59.07592 5.71666 10116 ft 302 kts 91°
2026-05-09 15:56 59.07376 5.75759 10612 ft 314 kts 104°
2026-05-09 15:57 59.06983 5.80100 10817 ft 338 kts 101°
2026-05-09 15:57 59.06728 5.84794 11019 ft 361 kts 96°
2026-05-09 15:57 59.06646 5.89788 11334 ft 377 kts 92°
2026-05-09 15:57 59.06696 5.94922 12049 ft 382 kts 90°
2026-05-09 15:58 59.06829 6.00025 12828 ft 385 kts 89°
2026-05-09 15:58 59.07027 6.05243 13570 ft 389 kts 88°
2026-05-09 15:58 59.07257 6.10519 14185 ft 395 kts 88°
2026-05-09 15:58 59.07502 6.15868 14855 ft 399 kts 88°
2026-05-09 15:59 59.07739 6.21260 15530 ft 402 kts 88°
2026-05-09 15:59 59.07971 6.26664 16552 ft 394 kts 88°
2026-05-09 15:59 59.08195 6.31929 17553 ft 390 kts 89°
2026-05-09 15:59 59.08409 6.37199 18201 ft 394 kts 89°
2026-05-09 16:00 59.08616 6.42559 18674 ft 401 kts 89°
2026-05-09 16:00 59.08686 6.44394 18839 ft 403 kts 89°
2026-05-09 16:00 59.08990 6.53505 19703 ft 410 kts 90°
2026-05-09 16:00 59.09161 6.59072 20215 ft 415 kts 90°
2026-05-09 16:01 59.09340 6.64705 20718 ft 419 kts 90°
2026-05-09 16:01 59.09528 6.70396 21263 ft 424 kts 90°
2026-05-09 16:01 59.09746 6.76153 21780 ft 429 kts 90°
2026-05-09 16:01 59.09977 6.81973 22271 ft 435 kts 90°
2026-05-09 16:02 59.10248 6.87863 22802 ft 440 kts 86°
2026-05-09 16:02 59.11436 6.99725 23790 ft 453 kts 81°
2026-05-09 16:02 59.12146 7.05737 24140 ft 458 kts 81°
2026-05-09 16:03 59.12856 7.11809 24629 ft 461 kts 81°
2026-05-09 16:03 59.13559 7.17925 24982 ft 466 kts 81°
2026-05-09 16:03 59.14250 7.24117 25329 ft 471 kts 81°
2026-05-09 16:03 59.14934 7.30390 25726 ft 475 kts 82°
2026-05-09 16:04 59.15612 7.36711 26093 ft 479 kts 82°
2026-05-09 16:04 59.16290 7.43104 26421 ft 484 kts 82°
2026-05-09 16:04 59.16966 7.49465 26724 ft 488 kts 82°
2026-05-09 16:04 59.17665 7.55967 27102 ft 491 kts 81°
2026-05-09 16:05 59.18370 7.62520 27427 ft 496 kts 81°
2026-05-09 16:05 59.19085 7.69232 27748 ft 501 kts 82°
2026-05-09 16:05 59.19766 7.75810 28084 ft 502 kts 81°
2026-05-09 16:05 59.20440 7.82505 28478 ft 505 kts 82°
2026-05-09 16:06 59.21118 7.89265 28773 ft 509 kts 81°
2026-05-09 16:06 59.21803 7.96074 29067 ft 514 kts 81°
2026-05-09 16:06 59.22500 8.02958 29316 ft 519 kts 81°
2026-05-09 16:06 59.23201 8.09884 29712 ft 521 kts 81°
2026-05-09 16:07 59.23907 8.16845 30025 ft 525 kts 81°
2026-05-09 16:07 59.24622 8.23862 30277 ft 528 kts 81°
2026-05-09 16:07 59.25339 8.30892 30717 ft 527 kts 81°
2026-05-09 16:07 59.26053 8.37885 31217 ft 523 kts 81°
2026-05-09 16:08 59.26753 8.44816 31794 ft 516 kts 81°
2026-05-09 16:08 59.27436 8.51669 32325 ft 512 kts 81°
2026-05-09 16:08 59.28093 8.58495 32714 ft 511 kts 82°
2026-05-09 16:08 59.28738 8.65344 33007 ft 512 kts 82°
2026-05-09 16:09 59.29377 8.72187 33394 ft 510 kts 82°
2026-05-09 16:09 59.30016 8.79001 33791 ft 508 kts 81°
2026-05-09 16:09 59.30661 8.85795 34122 ft 508 kts 82°
2026-05-09 16:09 59.31310 8.92603 34371 ft 509 kts 82°
2026-05-09 16:10 59.31959 8.99406 34666 ft 508 kts 82°
2026-05-09 16:10 59.32608 9.06191 34877 ft 507 kts 81°
2026-05-09 16:10 59.33250 9.12960 35001 ft 505 kts 81°
2026-05-09 16:10 59.33892 9.19704 35057 ft 501 kts 81°
2026-05-09 16:11 59.35149 9.33029 35110 ft 494 kts 82°
2026-05-09 16:11 59.36316 9.46255 35118 ft 492 kts 82°
2026-05-09 16:12 59.37474 9.59513 35128 ft 495 kts 82°
2026-05-09 16:12 59.38654 9.72820 35130 ft 496 kts 82°
2026-05-09 16:13 59.39821 9.85956 35136 ft 493 kts 81°
2026-05-09 16:13 59.41009 9.99171 35155 ft 490 kts 81°
2026-05-09 16:14 59.42172 10.12382 35158 ft 491 kts 82°
2026-05-09 16:14 59.43258 10.25631 35161 ft 491 kts 82°
2026-05-09 16:15 59.44333 10.38894 35162 ft 492 kts 82°
2026-05-09 16:15 59.45417 10.52142 35157 ft 489 kts 81°
2026-05-09 16:16 59.46514 10.65296 35186 ft 487 kts 82°
2026-05-09 16:16 59.47613 10.78494 35179 ft 490 kts 81°
2026-05-09 16:17 59.48702 10.91744 35174 ft 491 kts 82°
2026-05-09 16:17 59.49712 11.05050 35170 ft 492 kts 83°
2026-05-09 16:18 59.50696 11.18316 35154 ft 487 kts 82°
2026-05-09 16:18 59.51523 11.29221 35157 ft 483 kts 82°
2026-05-09 16:19 59.52533 11.42308 35159 ft 484 kts 82°
2026-05-09 16:19 59.53544 11.55457 35158 ft 486 kts 82°
2026-05-09 16:20 59.54550 11.68641 35158 ft 487 kts 82°
2026-05-09 16:20 59.55493 11.81857 35142 ft 486 kts 82°
2026-05-09 16:21 59.56384 11.94997 35147 ft 481 kts 82°
2026-05-09 16:21 59.57291 12.08034 35150 ft 480 kts 82°
2026-05-09 16:22 59.58213 12.21095 35152 ft 482 kts 82°
2026-05-09 16:22 59.59136 12.34216 35155 ft 483 kts 82°
2026-05-09 16:23 59.60061 12.47375 35152 ft 485 kts 82°
2026-05-09 16:23 59.60940 12.60579 35146 ft 485 kts 83°
2026-05-09 16:24 59.61755 12.73763 35143 ft 483 kts 83°
2026-05-09 16:24 59.62579 12.86940 35143 ft 482 kts 83°
2026-05-09 16:25 59.63420 13.00094 35146 ft 483 kts 83°
2026-05-09 16:25 59.64266 13.13289 35159 ft 484 kts 83°
2026-05-09 16:26 59.65104 13.26459 35151 ft 481 kts 82°
2026-05-09 16:26 59.65911 13.39544 35158 ft 479 kts 83°
2026-05-09 16:27 59.66646 13.52637 35150 ft 480 kts 84°
2026-05-09 16:27 59.67381 13.65774 35150 ft 481 kts 83°
2026-05-09 16:28 59.68136 13.78927 35151 ft 482 kts 83°
2026-05-09 16:28 59.68888 13.92011 35141 ft 480 kts 83°
2026-05-09 16:29 59.69638 14.05043 35148 ft 474 kts 83°
2026-05-09 16:29 59.70381 14.18077 35167 ft 475 kts 83°
2026-05-09 16:30 59.71044 14.31176 35157 ft 480 kts 84°
2026-05-09 16:30 59.71687 14.44258 35152 ft 480 kts 84°
2026-05-09 16:31 59.72356 14.57485 35137 ft 478 kts 83°
2026-05-09 16:31 59.73016 14.70434 35145 ft 473 kts 83°
2026-05-09 16:32 59.73570 14.81130 35147 ft 472 kts 83°
2026-05-09 16:32 59.74347 14.96206 35151 ft 474 kts 84°
2026-05-09 16:33 59.74940 15.09252 35150 ft 476 kts 84°
2026-05-09 16:33 59.75221 15.15839 34776 ft 485 kts 84°
2026-05-09 16:33 59.75507 15.22528 34498 ft 486 kts 84°
2026-05-09 16:34 59.75794 15.29185 34248 ft 482 kts 84°
2026-05-09 16:34 59.76083 15.35806 33663 ft 483 kts 83°
2026-05-09 16:34 59.76383 15.42433 32902 ft 482 kts 83°
2026-05-09 16:34 59.76691 15.49071 32002 ft 484 kts 84°
2026-05-09 16:35 59.76999 15.55737 31066 ft 487 kts 84°
2026-05-09 16:35 59.77307 15.62441 30135 ft 488 kts 84°
2026-05-09 16:35 59.77612 15.69156 29115 ft 488 kts 84°
2026-05-09 16:35 59.77911 15.75850 28168 ft 487 kts 85°
2026-05-09 16:36 59.78194 15.82527 27254 ft 484 kts 86°
2026-05-09 16:36 59.78912 16.01887 24681 ft 448 kts 87°
2026-05-09 16:37 59.79137 16.07982 23838 ft 437 kts 87°
2026-05-09 16:37 59.79362 16.13919 22884 ft 426 kts 87°
2026-05-09 16:37 59.79582 16.19724 22004 ft 420 kts 87°
2026-05-09 16:37 59.79803 16.25517 21178 ft 421 kts 87°
2026-05-09 16:38 59.80024 16.31301 20364 ft 419 kts 87°
2026-05-09 16:38 59.80243 16.36978 19569 ft 405 kts 86°
2026-05-09 16:38 59.80457 16.42468 18795 ft 393 kts 86°
2026-05-09 16:38 59.80665 16.47804 17982 ft 381 kts 86°
2026-05-09 16:39 59.80866 16.52974 17196 ft 370 kts 87°
2026-05-09 16:39 59.81060 16.57992 16456 ft 359 kts 87°
2026-05-09 16:39 59.81135 16.62872 15741 ft 351 kts 92°
2026-05-09 16:39 59.81122 16.67725 15029 ft 352 kts 91°
2026-05-09 16:40 59.81198 16.72598 14328 ft 354 kts 88°
2026-05-09 16:40 59.81388 16.77478 13598 ft 354 kts 86°
2026-05-09 16:42 59.83154 17.10116 10277 ft 304 kts 88°
2026-05-09 16:42 59.83297 17.14277 10117 ft 291 kts 88°
2026-05-09 16:42 59.83464 17.18216 9896 ft 282 kts 85°
2026-05-09 16:42 59.83737 17.22069 9470 ft 282 kts 83°
2026-05-09 16:43 59.84060 17.25906 9058 ft 281 kts 81°
2026-05-09 16:43 59.84386 17.29695 8836 ft 273 kts 81°
2026-05-09 16:43 59.84699 17.33320 8747 ft 268 kts 82°
2026-05-09 16:43 59.85027 17.37052 8682 ft 275 kts 81°
2026-05-09 16:44 59.85361 17.40811 8470 ft 275 kts 80°
2026-05-09 16:44 59.85683 17.44455 8079 ft 267 kts 82°
2026-05-09 16:44 59.86001 17.48063 7700 ft 264 kts 82°
2026-05-09 16:44 59.86323 17.51677 7327 ft 265 kts 82°
2026-05-09 16:45 59.86641 17.55294 6948 ft 265 kts 81°
2026-05-09 16:45 59.86955 17.58915 6580 ft 266 kts 81°
2026-05-09 16:45 59.87278 17.62527 6190 ft 264 kts 82°
2026-05-09 16:45 59.87602 17.66097 5819 ft 259 kts 82°
2026-05-09 16:46 59.87916 17.69554 5420 ft 250 kts 82°
2026-05-09 16:46 59.88227 17.72928 5027 ft 247 kts 82°
2026-05-09 16:46 59.88543 17.76270 4641 ft 243 kts 81°
2026-05-09 16:46 59.88865 17.79550 4246 ft 239 kts 82°
2026-05-09 16:47 59.89203 17.82773 3866 ft 237 kts 81°
2026-05-09 16:47 59.89544 17.85957 3475 ft 234 kts 82°
2026-05-09 16:47 59.89835 17.89112 3061 ft 227 kts 94°
2026-05-09 16:47 59.89472 17.92033 2781 ft 212 kts 116°
2026-05-09 16:48 59.88919 17.94694 2637 ft 205 kts 117°
2026-05-09 16:48 59.88350 17.97273 2565 ft 201 kts 127°
2026-05-09 16:48 59.87275 17.98831 2562 ft 194 kts 166°
2026-05-09 16:48 59.85957 17.99463 2575 ft 196 kts 167°
2026-05-09 16:49 59.84635 18.00129 2542 ft 197 kts 166°
2026-05-09 16:49 59.83317 18.00800 2560 ft 195 kts 167°
2026-05-09 16:49 59.81992 18.01435 2538 ft 196 kts 172°
2026-05-09 16:50 59.79285 18.00928 2516 ft 196 kts 187°
2026-05-09 16:50 59.77941 18.00577 2502 ft 191 kts 186°
2026-05-09 16:50 59.76724 18.00203 2505 ft 166 kts 188°
2026-05-09 16:50 59.75569 17.99782 2393 ft 172 kts 189°
2026-05-09 16:51 59.74407 17.99360 2128 ft 168 kts 188°
2026-05-09 16:51 59.73301 17.98954 1856 ft 154 kts 188°
2026-05-09 16:51 59.72277 17.98574 1639 ft 150 kts 187°
2026-05-09 16:51 59.71244 17.98201 1457 ft 148 kts 187°
2026-05-09 16:52 59.70262 17.97850 1248 ft 139 kts 187°
2026-05-09 16:52 59.69331 17.97507 1056 ft 136 kts 187°
2026-05-09 16:52 59.68416 17.97160 876 ft 135 kts 186°
2026-05-09 16:52 59.67470 17.96831 685 ft 137 kts 185°
2026-05-09 16:53 59.66528 17.96500 477 ft 139 kts 187°
2026-05-09 16:53 59.65598 17.96156 272 ft 133 kts 186°
2026-05-09 16:53 59.64699 17.95822 119 ft 128 kts 186°
2026-05-09 16:53 59.64012 17.95578 113 ft 58 kts 191°
2026-05-09 16:54 59.63610 17.95437 119 ft 56 kts 190°
2026-05-09 16:54 59.63335 17.95190 121 ft 39 kts 218°
2026-05-09 16:54 59.63237 17.94978 122 ft 9 kts 265°
2026-05-09 16:54 59.63252 17.94919 125 ft 4 kts 324°
2026-05-09 16:55 59.63278 17.94908 122 ft 6 kts 358°
2026-05-09 16:55 59.63339 17.94923 120 ft 12 kts
2026-05-09 16:55 59.63440 17.94959 120 ft 17 kts 10°
2026-05-09 16:55 59.63566 17.95004 116 ft 20 kts 10°
2026-05-09 16:56 59.63714 17.95057 112 ft 23 kts 10°
2026-05-09 16:56 59.63877 17.95114 110 ft 24 kts 11°
2026-05-09 16:56 59.64049 17.95179 109 ft 26 kts 11°
2026-05-09 16:56 59.64227 17.95246 107 ft 26 kts
2026-05-09 16:57 59.64409 17.95311 106 ft 27 kts 10°
2026-05-09 16:57 59.64596 17.95379 105 ft 28 kts 11°
2026-05-09 16:57 59.64786 17.95450 107 ft 27 kts 10°
2026-05-09 16:57 59.64952 17.95509 111 ft 22 kts 11°
2026-05-09 16:58 59.65091 17.95490 116 ft 19 kts 343°
2026-05-09 16:58 59.65208 17.95427 119 ft 16 kts 346°
2026-05-09 16:58 59.65308 17.95377 126 ft 14 kts 345°
2026-05-09 16:58 59.65413 17.95321 126 ft 17 kts 345°
2026-05-09 16:59 59.65529 17.95259 128 ft 18 kts 345°
2026-05-09 16:59 59.65652 17.95194 127 ft 18 kts 346°
2026-05-09 16:59 59.65758 17.95136 124 ft 1 kts 338°
2026-05-09 16:59 59.65759 17.95132 124 ft 0 kts 316°
2026-05-09 17:00 59.65760 17.95129 127 ft 1 kts 301°
2026-05-09 17:00 59.65756 17.95073 127 ft 7 kts 261°
2026-05-09 17:00 59.65742 17.94965 125 ft 9 kts 256°
2026-05-09 17:00 59.65725 17.94822 124 ft 12 kts 256°
2026-05-09 17:01 59.65702 17.94658 124 ft 13 kts 256°
2026-05-09 17:01 59.65680 17.94483 123 ft 13 kts 257°
2026-05-09 17:01 59.65658 17.94295 125 ft 15 kts 255°
2026-05-09 17:01 59.65629 17.94079 119 ft 18 kts 256°
2026-05-09 17:02 59.65594 17.93798 114 ft 23 kts 256°
2026-05-09 17:02 59.65555 17.93490 113 ft 22 kts 256°
2026-05-09 17:02 59.65526 17.93256 112 ft 14 kts 251°
2026-05-09 17:02 59.65460 17.93217 112 ft 9 kts 143°
2026-05-09 17:03 59.65405 17.93257 112 ft 9 kts 168°
2026-05-09 17:04 59.65333 17.93153 112 ft 0 kts 250°